Regional Weather Roundup
Issued by NWS

Home | Current Version | Previous Version | Graphics & Text | Print | Product List | Glossary On
Versions: 1 2 3 4 5 6 7 8 9 10 11 12 13 14 15 16 17 18 19 20 21 22 23 24 25 26 27 28 29 30 31 32 33 34 35 36 37 38 39 40 41 42 43 44 45 46 47 48 49 50
000
ASUS45 KBOU 192307
RWRCO

WEATHER ROUNDUP FOR COLORADO
NATIONAL WEATHER SERVICE DENVER/BOULDER CO
500 PM MDT FRI SEP 19 2014

NOTE: "FAIR" INDICATES FEW OR NO CLOUDS BELOW 12000 FEET WITH NO
SIGNIFICANT WEATHER AND/OR OBSTRUCTIONS TO VISIBILITY.

COZ001>005-013-030-031-200000-
...NORTHWEST COLORADO...

CITY           SKY/WX    TMP DP  RH WIND       PRES   REMARKS
CRAIG          SUNNY     81  38  21 W9        30.08S
HAYDEN         MOSUNNY   81  39  22 NW10G20   30.10S
MEEKER         NOT AVBL
MOUNT WERNER   NOT AVBL
STEAMBOAT SPGS MOSUNNY   78  38  23 W9G17     30.12S
WALDEN         MOSUNNY   73  37  27 W15G21    30.20S
$$

COZ006>008-011-200000-
...WEST CENTRAL VALLEYS...

CITY           SKY/WX    TMP DP  RH WIND       PRES   REMARKS
GRAND JUNCTION SUNNY     88  38  17 W9        29.96F
MONTROSE       SUNNY     85  43  22 N6        30.04F
EAGLE          MOSUNNY   82  37  20 SW13      30.08S
RIFLE          MOSUNNY   86  39  19 W10       30.00F
DELTA          SUNNY     91  38  15 W9G17     29.98S
NUCLA          SUNNY     82  41  23 NW8       30.08F
$$

COZ017>023-064>068-200000-
...SOUTHWEST COLORADO...

CITY           SKY/WX    TMP DP  RH WIND       PRES   REMARKS
DURANGO        SUNNY     82  41  23 NW12G20   30.06F
CORTEZ         SUNNY     85  43  22 N12       30.04F
PAGOSA SPRINGS MOSUNNY   81  31  16 SW9G16    30.14S
TELLURIDE      NOT AVBL
WOLF CREEK PAS CLOUDY    54  32  43 N3        30.49R
$$

COZ009-010-012-014-032>034-037-058>063-200000-
...CENTRAL COLORADO...

CITY           SKY/WX    TMP DP  RH WIND       PRES   REMARKS
ASPEN          MOSUNNY   77  39  25 NW10      30.17R
BUENA VISTA    PTSUNNY   74  31  20 S10G18    30.17R
COPPER MTN     PTSUNNY   64  30  27 W16G26    30.51S
BERTHOUD PASS  FAIR      52  50  93 N6        30.56R
COTTONWOOD PAS CLOUDY    68  28  22 N5        30.33S
GUNNISON       SUNNY     77  37  24 SW7       30.17S
KREMMLING      MOSUNNY   73  34  23 NW6       30.16R
LEADVILLE      MOSUNNY   69  26  20 W13       30.31S
MONARCH PASS   MOSUNNY   63  30  29 W16G26    30.60S
SALIDA         PTSUNNY   79  31  18 NW14G22   30.19R
SUNLIGHT       SUNNY     64  41  42 SW3       30.44S
WILKERSON PASS NOT AVBL
$$

COZ069>075-200000-
...SAN LUIS VALLEY/SANGRE DE CRISTO MOUNTAINS...

CITY           SKY/WX    TMP DP  RH WIND       PRES   REMARKS
ALAMOSA        SUNNY     81  30  15 W6        30.11F
LA VETA PASS   MOSUNNY   64  32  29 NE8       30.35S
SAGUACHE       NOT AVBL
$$

COZ035-036-038>040-200000-
...NORTHERN COLORADO FRONT RANGE...

CITY           SKY/WX    TMP DP  RH WIND       PRES   REMARKS
DENVER INTL AP MOSUNNY   83  43  24 E5        29.96S
DMNS CITY PARK   N/A     84  38  19 SE5G13    29.94F
AURORA         MOSUNNY   86  40  20 SE10      29.99S
FRONT RANGE AP MOSUNNY   88  43  20 E9        29.98
ERIE MUNI ARPT MOSUNNY   88  35  15 CALM      29.94S
BOULDER MUN AP MOSUNNY   86  41  20 S3        29.96R
CENTENNIAL     MOSUNNY   85  39  19 E10       30.00S
BROOMFIELD     NOT AVBL
FORT COLLINS   MOSUNNY   81  48  32 SW5       29.93F
LONGMONT       MOSUNNY   91  43  18 NW5       29.96S
$$

COZ041-046-047-076>085-087-088-200000-
...PIKES PEAK/PALMER DIVIDE AND SOUTHERN FOOTHILLS...

CITY           SKY/WX    TMP DP  RH WIND       PRES   REMARKS
COLO. SPRINGS  MOSUNNY   84  34  16 E7        30.04S
A. F. ACADEMY  SUNNY     82  36  18 SE7       30.05S
ELLICOTT       NOT AVBL
FALCON         MOSUNNY   82  33  17 NE7       30.10S
FORT CARSON    MOSUNNY   84  38  20 N8        30.00F
LIMON          SUNNY     87  36  16 NE8       29.97S
MONUMENT HILL  SUNNY     77  36  22 E7        30.11R
TRINIDAD       SUNNY     86  37  17 SE10      29.99S
$$

COZ042>045-048>051-090-091-200000-
...NORTHEAST COLORADO...

CITY           SKY/WX    TMP DP  RH WIND       PRES   REMARKS
GREELEY ARPT   MOSUNNY   88  45  22 W5        29.92S
AKRON          SUNNY     88  43  20 NE6       29.91S
BURLINGTON     SUNNY     88  50  27 S14G22    29.90S
WRAY           SUNNY     92  45  19 SE12      29.85S
STERLING       SUNNY     91  52  25 E6        29.85S
HOLYOKE        SUNNY     95  46  18 SE5       29.85S
FORT MORGAN    SUNNY     87  44  22 SE8       29.91F
$$

COZ086-089-092>099-200000-
...SOUTHEAST COLORADO...

CITY           SKY/WX    TMP DP  RH WIND       PRES   REMARKS
PUEBLO         SUNNY     89  39  17 SE12      29.91S
LA JUNTA       SUNNY     91  38  15 SE7       29.88S
LAMAR          MOSUNNY   90  56  31 S20G25    29.84S
SPRINGFIELD      N/A     81  58  45 S21G30    29.95S
$$



USA.gov is the U.S. government's official web portal to all federal, state and local government web resources and services.